Houghton, MI

1:57 AM EST on December 13, 2017 (GMT -0500)
Houghton County Memorial

Weather History for KCMX - December, 2013

Change the Weather History Date:

Friday, December 27, 2013

  Actual Average Record
Temperature  
Mean Temperature 20 °F -  
Max Temperature 33 °F 23 °F 43 °F (2011)
Min Temperature 8 °F 11 °F -7 °F (1990)
Degree Days  
Heating Degree Days 44    
Moisture  
Dew Point 15 °F    
Average Humidity 81    
Maximum Humidity 85    
Minimum Humidity 72    
Precipitation  
Precipitation 0.00 in - - ()
Sea Level Pressure  
Sea Level Pressure 29.96 in    
Wind  
Wind Speed 8 mph (SW)    
Max Wind Speed 18 mph    
Max Gust Speed 25 mph    
Visibility 10 miles    
Events Snow    
Averages and records for this station are not official NWS values.
T = Trace of Precipitation, MM = Missing Value Source: NWS Daily Summary

Daily Weather History Graph

Daily Weather History Graph

Search for Another Location

Airport or City:

Trip Planner

Search our weather history database for the weather conditions in past years. The results will help you decide how hot, cold, wet, or windy it might be!

Date:

Astronomy

Dec. 27, 2013 Rise Set
Actual Time 8:39 AM EST 5:10 PM EST
Civil Twilight 8:04 AM EST 5:46 PM EST
Nautical Twilight 7:25 AM EST 6:25 PM EST
Astronomical Twilight 6:48 AM EST 7:02 PM EST
Moon 2:57 AM EST (12/27) 1:33 PM EST (12/27)
Length of Visible Light 9h 41m
Length of Day
8h 30m
Waning Crescent, 28% of the Moon is Illuminated
Dec 27
Waning Crescent
Jan 1
New
Jan 7
First Quarter
Jan 15
Full
Jan 24
Last Quarter

Hourly Weather History & Observations

Time (EST) Temp. Windchill Dew Point Humidity Pressure Visibility Wind Dir Wind Speed Gust Speed Precip Events Conditions
12:53 AM 14.0 °F 5.1 °F 9.0 °F 80% 30.15 in 8.0 mi SW 5.8 mph - 0.00 in Snow Light Snow
1:53 AM 14.0 °F 3.9 °F 9.0 °F 80% 30.15 in 6.0 mi SSW 6.9 mph - 0.00 in Snow Light Snow
2:53 AM 12.9 °F 5.2 °F 8.1 °F 81% 30.16 in 8.0 mi SSW 4.6 mph - 0.00 in   Overcast
3:53 AM 12.9 °F 2.6 °F 7.0 °F 77% 30.15 in 10.0 mi SSW 6.9 mph - N/A   Overcast
4:46 AM 10.4 °F 2.2 °F 6.8 °F 85% 30.07 in 10.0 mi SSW 4.6 mph - N/A   Mostly Cloudy
4:53 AM 10.9 °F 2.9 °F 6.1 °F 81% 30.14 in 10.0 mi SSW 4.6 mph - N/A   Mostly Cloudy
5:53 AM 10.9 °F 1.4 °F 6.1 °F 81% 30.13 in 10.0 mi SW 5.8 mph - N/A   Overcast
6:09 AM 10.4 °F 2.2 °F 6.8 °F 85% 30.06 in 10.0 mi SSW 4.6 mph - N/A   Overcast
6:53 AM 10.0 °F 3.6 °F 6.1 °F 84% 30.14 in 10.0 mi SSW 3.5 mph - N/A   Overcast
7:26 AM 8.6 °F -2.6 °F 5.0 °F 85% 30.06 in 10.0 mi South 6.9 mph - N/A   Scattered Clouds
7:53 AM 9.0 °F -3.2 °F 5.0 °F 84% 30.13 in 10.0 mi South 8.1 mph - N/A   Clear
8:53 AM 9.0 °F -0.9 °F 5.0 °F 84% 30.11 in 10.0 mi South 5.8 mph - N/A   Overcast
9:53 AM 10.0 °F 0.4 °F 6.1 °F 84% 30.09 in 10.0 mi South 5.8 mph - N/A   Overcast
10:13 AM 10.4 °F 0.8 °F 6.8 °F 85% 30.00 in 10.0 mi South 5.8 mph - N/A   Overcast
10:21 AM 10.4 °F 0.8 °F 6.8 °F 85% 29.99 in 10.0 mi South 5.8 mph - N/A   Overcast
10:53 AM 12.9 °F 1.6 °F 8.1 °F 81% 30.04 in 10.0 mi SSW 8.1 mph - N/A   Overcast
11:21 AM 15.8 °F 4.2 °F 10.4 °F 79% 29.94 in 10.0 mi South 9.2 mph - N/A   Overcast
11:53 AM 17.1 °F 7.6 °F 10.9 °F 77% 29.99 in 10.0 mi South 6.9 mph - N/A   Overcast
12:53 PM 18.0 °F 8.7 °F 12.0 °F 78% 29.92 in 10.0 mi SE 6.9 mph - N/A   Overcast
1:53 PM 19.9 °F 12.1 °F 15.1 °F 81% 29.86 in 10.0 mi SSE 5.8 mph - N/A   Overcast
2:53 PM 24.1 °F 17.0 °F 18.0 °F 77% 29.80 in 9.0 mi South 5.8 mph - N/A   Overcast
3:53 PM 26.1 °F 19.4 °F 19.9 °F 78% 29.77 in 10.0 mi SSW 5.8 mph - N/A   Overcast
4:53 PM 30.0 °F 20.5 °F 21.9 °F 72% 29.78 in 7.0 mi West 11.5 mph - N/A   Scattered Clouds
5:31 PM 30.2 °F 20.2 °F 23.0 °F 75% 29.73 in 10.0 mi West 12.7 mph - N/A   Overcast
5:53 PM 30.9 °F 20.7 °F 24.1 °F 76% 29.79 in 10.0 mi West 13.8 mph - N/A   Overcast
6:53 PM 33.1 °F 21.9 °F 27.0 °F 78% 29.80 in 10.0 mi West 18.4 mph 25.3 mph N/A   Overcast
7:53 PM 33.1 °F 23.0 °F 27.0 °F 78% 29.82 in 10.0 mi West 15.0 mph - N/A   Overcast
8:15 PM 33.8 °F 23.2 °F 28.4 °F 81% 29.76 in 10.0 mi WNW 17.3 mph 23.0 mph N/A   Overcast
8:53 PM 33.1 °F 23.9 °F 28.9 °F 85% 29.83 in 7.0 mi WNW 12.7 mph - N/A   Overcast
9:53 PM 33.1 °F 23.0 °F 28.0 °F 82% 29.86 in 10.0 mi WNW 15.0 mph - N/A   Overcast
10:11 PM 33.8 °F 24.3 °F 28.4 °F 81% 29.80 in 10.0 mi WNW 13.8 mph - N/A   Overcast
10:53 PM 33.1 °F 22.2 °F 28.0 °F 82% 29.87 in 10.0 mi NW 17.3 mph - N/A   Overcast
11:00 PM 33.8 °F 24.3 °F 28.4 °F 81% 29.82 in 10.0 mi NW 13.8 mph - N/A   Overcast
11:53 PM 32.0 °F 22.1 °F 27.0 °F 82% 29.87 in 10.0 mi WNW 13.8 mph - N/A   Overcast